• In Hungary
  • List of Countries
  • For 7 days
  • Water Temperature
  • Satellite Maps
  • Weather Map
  • News
  • Weather Widgets
  • user-avatar
    Login

    Hourly Weather Pucón

    Today, 25 May, Friday

    Time Temperature Precipitation Wind Pressure Humidity
    00:00 +10°C° 0 mm 1 mps 732 mmHg 79%
    01:00 +10°C° 0 mm 1 mps 732 mmHg 76%
    02:00 +10°C° 0 mm 1 mps 732 mmHg 74%
    03:00 +10°C° 0 mm 1 mps 731 mmHg 72%
    04:00 +10°C° 0 mm 1 mps 731 mmHg 70%
    05:00 +10°C° 0 mm 1 mps 731 mmHg 69%
    06:00 +9°C° 0 mm 1 mps 731 mmHg 68%
    07:00 +9°C° 0 mm 1 mps 730 mmHg 67%
    08:00 +12°C° 0 mm 1 mps 730 mmHg 61%
    09:00 +14°C° 0 mm 1 mps 730 mmHg 54%
    10:00 +16°C° 0 mm 1 mps 730 mmHg 48%
    11:00 +17°C° 0 mm 2 mps 730 mmHg 47%
    12:00 +18°C° 0 mm 2 mps 729 mmHg 46%
    13:00 +19°C° 0 mm 3 mps 728 mmHg 45%
    14:00 +17°C° 0 mm 2 mps 728 mmHg 51%
    15:00 +16°C° 0 mm 2 mps 728 mmHg 58%
    16:00 +15°C° 0 mm 2 mps 727 mmHg 64%
    17:00 +14°C° 0 mm 1 mps 727 mmHg 68%
    18:00 +12°C° 0 mm 1 mps 728 mmHg 73%
    19:00 +11°C° 0 mm 1 mps 728 mmHg 77%
    20:00 +11°C° 0.9 mm 1 mps 728 mmHg 80%
    21:00 +11°C° 0.9 mm 1 mps 728 mmHg 83%
    22:00 +10°C° 0.9 mm 2 mps 728 mmHg 87%
    23:00 +10°C° 2.5 mm 2 mps 728 mmHg 90%

    Tomorrow, 26 May, Saturday

    Time Temperature Precipitation Wind Pressure Humidity
    00:00 +9°C° 2.5 mm 2 mps 728 mmHg 92%
    01:00 +9°C° 2.5 mm 2 mps 728 mmHg 95%
    02:00 +9°C° 2.2 mm 2 mps 728 mmHg 96%
    03:00 +9°C° 2.2 mm 2 mps 728 mmHg 96%
    04:00 +9°C° 2.2 mm 2 mps 728 mmHg 97%
    05:00 +9°C° 2.1 mm 2 mps 728 mmHg 97%
    06:00 +9°C° 2.1 mm 2 mps 729 mmHg 97%
    07:00 +9°C° 2.1 mm 2 mps 729 mmHg 97%
    08:00 +9°C° 1.4 mm 2 mps 730 mmHg 96%
    09:00 +9°C° 1.4 mm 2 mps 731 mmHg 95%
    10:00 +10°C° 1.4 mm 1 mps 732 mmHg 93%
    11:00 +11°C° 0.2 mm 1 mps 732 mmHg 91%
    12:00 +11°C° 0.2 mm 1 mps 732 mmHg 88%
    13:00 +10°C° 0.2 mm 2 mps 732 mmHg 85%
    14:00 +11°C° 0.1 mm 1 mps 732 mmHg 87%
    15:00 +11°C° 0.1 mm 1 mps 732 mmHg 89%
    16:00 +10°C° 0.1 mm 1 mps 732 mmHg 91%
    17:00 +10°C° 0.1 mm 1 mps 733 mmHg 93%
    18:00 +9°C° 0.1 mm 1 mps 733 mmHg 94%
    19:00 +9°C° 0.1 mm 1 mps 734 mmHg 95%
    20:00 +9°C° 0.1 mm 1 mps 734 mmHg 96%
    21:00 +8°C° 0.1 mm 1 mps 734 mmHg 96%
    22:00 +8°C° 0.1 mm 1 mps 734 mmHg 97%
    23:00 +8°C° 0 mm 1 mps 734 mmHg 97%

    Day after tomorrow, 27 May, Sunday

    Time Temperature Precipitation Wind Pressure Humidity
    00:00 +8°C° 0 mm 1 mps 734 mmHg 96%
    01:00 +8°C° 0 mm 1 mps 734 mmHg 96%
    02:00 +8°C° 0 mm 1 mps 733 mmHg 96%
    03:00 +8°C° 0 mm 1 mps 733 mmHg 96%
    04:00 +8°C° 0 mm 1 mps 733 mmHg 96%
    05:00 +8°C° 0 mm 1 mps 733 mmHg 96%
    06:00 +8°C° 0 mm 1 mps 733 mmHg 96%
    07:00 +8°C° 0 mm 1 mps 732 mmHg 96%
    08:00 +9°C° 0 mm 1 mps 732 mmHg 93%
    09:00 +10°C° 0 mm 1 mps 732 mmHg 90%
    10:00 +11°C° 0 mm 1 mps 732 mmHg 88%
    11:00 +12°C° 0 mm 1 mps 731 mmHg 82%
    12:00 +13°C° 0 mm 1 mps 730 mmHg 76%
    13:00 +14°C° 0 mm 1 mps 729 mmHg 71%
    14:00 +13°C° 0 mm 1 mps 729 mmHg 74%
    15:00 +12°C° 0 mm 1 mps 728 mmHg 78%
    16:00 +10°C° 0 mm 0 mps 728 mmHg 81%
    17:00 +11°C° 0 mm 1 mps 728 mmHg 84%
    18:00 +10°C° 0 mm 1 mps 728 mmHg 86%
    19:00 +9°C° 0 mm 1 mps 728 mmHg 88%
    20:00 +9°C° 0 mm 1 mps 727 mmHg 88%
    21:00 +9°C° 0 mm 1 mps 727 mmHg 88%
    22:00 +9°C° 0 mm 1 mps 727 mmHg 88%
    23:00 +9°C° 0.1 mm 1 mps 726 mmHg 88%

    28 May, Monday

    Time Temperature Precipitation Wind Pressure Humidity
    00:00 +9°C° 0.1 mm 1 mps 726 mmHg 87%
    01:00 +9°C° 0.1 mm 1 mps 725 mmHg 86%
    02:00 +9°C° 0.4 mm 1 mps 725 mmHg 88%
    03:00 +9°C° 0.4 mm 1 mps 724 mmHg 89%
    04:00 +9°C° 0.4 mm 1 mps 723 mmHg 91%
    05:00 +8°C° 3.2 mm 2 mps 722 mmHg 92%
    06:00 +8°C° 3.2 mm 2 mps 722 mmHg 93%
    07:00 +8°C° 3.2 mm 2 mps 721 mmHg 95%
    08:00 +9°C° 3.6 mm 3 mps 720 mmHg 94%
    09:00 +10°C° 3.6 mm 3 mps 720 mmHg 94%
    10:00 +10°C° 3.6 mm 4 mps 719 mmHg 93%
    11:00 +11°C° 2.5 mm 4 mps 719 mmHg 93%
    12:00 +11°C° 2.5 mm 4 mps 719 mmHg 93%
    13:00 +10°C° 2.5 mm 5 mps 719 mmHg 93%
    14:00 +10°C° 1.5 mm 4 mps 721 mmHg 94%
    15:00 +8°C° 1.5 mm 4 mps 722 mmHg 96%
    16:00 +7°C° 1.5 mm 4 mps 723 mmHg 97%
    17:00 +8°C° 0.9 mm 3 mps 725 mmHg 97%
    18:00 +8°C° 0.9 mm 3 mps 726 mmHg 97%
    19:00 +7°C° 0.9 mm 2 mps 727 mmHg 97%
    20:00 +7°C° 0.5 mm 2 mps 728 mmHg 97%
    21:00 +7°C° 0.5 mm 2 mps 729 mmHg 97%
    22:00 +8°C° 0.5 mm 2 mps 729 mmHg 96%
    23:00 +8°C° 0.5 mm 2 mps 729 mmHg 97%

    29 May, Tuesday

    Time Temperature Precipitation Wind Pressure Humidity
    00:00 +8°C° 0.5 mm 2 mps 730 mmHg 97%
    01:00 +8°C° 0.5 mm 2 mps 730 mmHg 97%
    02:00 +8°C° 0.5 mm 2 mps 730 mmHg 97%
    03:00 +7°C° 0.5 mm 2 mps 730 mmHg 97%
    04:00 +7°C° 0.5 mm 2 mps 730 mmHg 97%
    05:00 +7°C° 1.1 mm 2 mps 730 mmHg 97%
    06:00 +7°C° 1.1 mm 2 mps 731 mmHg 97%
    07:00 +7°C° 1.1 mm 2 mps 731 mmHg 97%
    08:00 +7°C° 2.1 mm 2 mps 731 mmHg 97%
    09:00 +7°C° 2.1 mm 2 mps 732 mmHg 97%
    10:00 +7°C° 2.1 mm 2 mps 732 mmHg 97%
    11:00 +7°C° 1.6 mm 2 mps 732 mmHg 96%
    12:00 +7°C° 1.6 mm 2 mps 732 mmHg 96%
    13:00 +8°C° 1.6 mm 2 mps 732 mmHg 95%
    14:00 +7°C° 1 mm 2 mps 732 mmHg 96%
    15:00 +7°C° 1 mm 2 mps 733 mmHg 96%
    16:00 +7°C° 1 mm 2 mps 733 mmHg 96%
    17:00 +7°C° 0.4 mm 2 mps 734 mmHg 97%
    18:00 +6°C° 0.4 mm 2 mps 734 mmHg 97%
    19:00 +6°C° 0.4 mm 2 mps 735 mmHg 97%
    20:00 +5°C° 0.3 mm 2 mps 735 mmHg 97%
    21:00 +6°C° 0.3 mm 1 mps 735 mmHg 97%
    22:00 +6°C° 0.3 mm 1 mps 735 mmHg 98%
    23:00 +5°C° 0.4 mm 2 mps 735 mmHg 97%

    30 May, Wednesday

    Time Temperature Precipitation Wind Pressure Humidity
    00:00 +5°C° 0.4 mm 2 mps 734 mmHg 97%
    01:00 +5°C° 0.4 mm 2 mps 734 mmHg 97%
    02:00 +5°C° 1 mm 2 mps 734 mmHg 97%
    03:00 +5°C° 1 mm 2 mps 733 mmHg 96%
    04:00 +4°C° 1 mm 3 mps 733 mmHg 96%
    05:00 +4°C° 2.8 mm 3 mps 733 mmHg 97%
    06:00 +5°C° 2.8 mm 2 mps 733 mmHg 97%
    07:00 +4°C° 2.8 mm 2 mps 734 mmHg 97%
    08:00 +4°C° 0.6 mm 2 mps 734 mmHg 95%
    09:00 +4°C° 0.6 mm 2 mps 735 mmHg 93%
    10:00 +4°C° 0.6 mm 2 mps 735 mmHg 91%
    11:00 +4°C° 0.2 mm 2 mps 735 mmHg 88%
    12:00 +4°C° 0.2 mm 2 mps 736 mmHg 85%
    13:00 +4°C° 0.2 mm 2 mps 736 mmHg 82%
    14:00 +4°C° 0.1 mm 2 mps 737 mmHg 84%
    15:00 +4°C° 0.1 mm 1 mps 737 mmHg 85%
    16:00 +3°C° 0.1 mm 1 mps 738 mmHg 87%
    17:00 +2°C° 0 mm 1 mps 739 mmHg 89%
    18:00 +1°C° 0 mm 1 mps 740 mmHg 92%
    19:00 -1°C° 0 mm 0 mps 740 mmHg 94%
    20:00 -1°C° 0 mm 1 mps 741 mmHg 94%
    21:00 -1°C° 0 mm 1 mps 741 mmHg 94%
    22:00 -2°C° 0 mm 1 mps 742 mmHg 94%
    23:00 -2°C° 0 mm 1 mps 742 mmHg 94%
    Show more